Regional Weather Roundup
Issued by NWS Portland, ME

Home | Current Version | Previous Version | Text Only | Print | Product List | Glossary On
Versions: 1 2 3 4 5 6 7 8 9 10 11 12 13 14 15 16 17 18 19 20 21 22 23 24 25 26 27 28 29 30 31 32 33 34 35 36 37 38 39 40 41 42 43 44 45 46 47 48 49 50
032
ASUS41 KGYX 250910
RWRGYX
WEATHER ROUNDUP FOR MAINE AND NEW HAMPSHIRE
NATIONAL WEATHER SERVICE GRAY ME
500 AM EDT THU MAY 25 2017

MEZ002-005-006-010-012-015-018-020-021-024-026-027-029-251000-
MAINE

CITY           SKY/WX    TMP DP  RH WIND       PRES   REMARKS
PORTLAND       CLOUDY    49  48  97 E3        29.90R
SANFORD        CLOUDY    44  43  96 CALM      29.90R
BAR HARBOR     CLOUDY    45  44  97 NE3       29.93S
WISCASSET      CLOUDY    46  44  93 CALM      29.92R
ROCKLAND         N/A     50  49  96 N6        29.91F
FRYEBURG       PTCLDY    46  46 100 CALM      29.90R FOG
LEWISTONAUBURN MOCLDY    45  45 100 S3        29.90R
AUGUSTA        CLOUDY    50  47  89 CALM      29.90S
WATERVILLE     CLOUDY    49  48  97 CALM      29.88S
BANGOR         CLOUDY    46  45  96 CALM      29.92S
GREENVILLE       N/A     52  47  83 E6        29.90S
MILLINOCKET    CLOUDY    50  49  96 NE5       29.96R
HOULTON        CLOUDY    45  43  93 N3        29.96R
PRESQUE ISLE   CLOUDY    45  44  97 CALM      29.99R
FRENCHVILLE    FOG       44  43  96 E8        29.98R VSB 1/4
CARIBOU        CLOUDY    47  42  83 CALM      29.98R
$$

NHZ002-005-008-009-011-012-014-251000-
NEW HAMPSHIRE

CITY           SKY/WX    TMP DP  RH WIND       PRES   REMARKS
PORTSMOUTH     CLOUDY    49  48  96 E3        29.88R
ROCHESTER      CLOUDY    49  46  90 NW5       29.88R
NASHUA         CLOUDY    50  49  96 CALM      29.88R
MANCHESTER     CLOUDY    52  47  83 N5        29.87R
CONCORD        CLOUDY    49  47  93 CALM      29.88R
LACONIA        CLOUDY    50  48  93 CALM      29.90R
BERLIN         FOG       45  43  93 CALM      29.89R VSB 1/4
WHITEFIELD     CLOUDY    44  41  89 CALM      29.87R
JAFFREY        CLOUDY    48  48 100 CALM      29.87R
KEENE          CLOUDY    49  48  97 CALM      29.86S
LEBANON        CLOUDY    50  49  96 CALM      29.86R
MT WASHINGTON  FOG       37  37 100 SE31        N/A  VSB 0
$$

VTZ005-007-008-251000-
VERMONT

CITY           SKY/WX    TMP DP  RH WIND       PRES   REMARKS
ST JOHNSBURY     N/A     50  48  93 MISG      29.86R
MONTPELIER     CLOUDY    48  48 100 S3        29.90R
BURLINGTON     CLOUDY    61  51  70 S7        29.82R
$$

MAZ007-012-024-CTZ003-RIZ002-NYZ038-NYZ072-251000-
SOUTHERN NEW ENGLAND AND NY

CITY           SKY/WX    TMP DP  RH WIND       PRES   REMARKS
BOSTON         CLOUDY    54  52  93 E10       29.88R
WORCESTER      CLOUDY    50  47  89 E8        29.85R
NANTUCKET      CLOUDY    53  49  86 NE13      29.82F
PROVIDENCE     CLOUDY    53  51  93 NE9       29.84F
HARTFORD       CLOUDY    53  49  86 N6        29.83S
ALBANY         CLOUDY    59  46  62 S9        29.79S
NEW YORK CITY  LGT RAIN  57  53  86 E7        29.74F
$$

ANZ081-ANZ082-ANZ150-NHZ014-MEZ023>029-251000-
COASTAL MARINE OBSERVATIONS

STATION/POSITION TIME  TEMP    WIND        PRES    WAVE
                       AIR SEA DIR/SP/G            HT/PER
                 (UTC) (F)     (DEG/KT/KT) (MB)    (FT/S)
MOUNT DESERT ROC 0900   47                 1013.2F
ISLE OF SHOALS   0800   54      70/  8/  8 1011.2F
JEFFREYS LEDGE   0806      52                N/A     3/10
CASHES LEDGE BUO 0750   49 50              1012.8    3/ 9
GEORGES BANK BUO 0750   47 45              1009.6    6/10
$$

.............KEY..............
   WCI - WIND CHILL
   TC  - TEMPERATURE IN CELSIUS
   VSB - VISIBILITY IN MILES
   HX  - HEAT INDEX
   FAIR- INDICATES FEW OR NO CLOUDS BELOW 12,000 FT, WITH NO
         SIGNIFICANT WEATHER AND/OR OBSTRUCTIONS TO VISIBILITY.






USA.gov is the U.S. government's official web portal to all federal, state and local government web resources and services.